Regional Weather Roundup
Issued by NWS Lake Charles, LA

Home | Current Version | Previous Version | Text Only | Print | Product List | Glossary On
Versions: 1 2 3 4 5 6 7 8 9 10 11 12 13 14 15 16 17 18 19 20 21 22 23 24 25 26 27 28 29 30 31 32 33 34 35 36 37 38 39 40 41 42 43 44 45 46 47 48 49 50
000
ASUS44 KLCH 050010
RWRLCH
REGIONAL WEATHER ROUNDUP
NATIONAL WEATHER SERVICE LAKE CHARLES LA
600 PM CST SUN DEC 04 2016

Note: "fair" indicates few or no clouds below 12,000 feet with no
significant weather and/or obstructions to visibility.


ACROSS SOUTHEAST TEXAS

CITY           SKY/WX    TMP DP  RH WIND       PRES   REMARKS
BEAUMONT       CLOUDY    53  51  93 E13       29.91F
BEAUMONT CITY  CLOUDY    53  51  91 N6        29.94R
ORANGE         CLOUDY   N/A N/A N/A NE7       29.95S
JASPER         CLOUDY    52  50  94 N9        29.98R
$$

ACROSS CENTRAL LOUISIANA

CITY           SKY/WX    TMP DP  RH WIND       PRES   REMARKS
LEESVILLE      CLOUDY    49  48  97 NE10      29.92F
FULLERTON      CLOUDY    50  48  93 VRB7      29.93F
ALEXANDRIA INT CLOUDY    50  48  93 N9        29.98S
ESLER FIELD    CLOUDY    50  49  96 VRB7      29.98F
DERIDDER       CLOUDY    50  49  95 NE8       29.96F
OAKDALE        CLOUDY    51  49  93 NE9       29.95F
OPELOUSAS      CLOUDY    51  50  96 N12       29.96R
$$

ACROSS SOUTHWEST AND SOUTH CENTRAL LOUISIANA

CITY           SKY/WX    TMP DP  RH WIND       PRES   REMARKS
SULPHUR        CLOUDY    53  51  94 N12G18    29.96R
LAKE CHARLES   CLOUDY    52  52 100 NE14      29.95R
CHENNAULT INT  CLOUDY    52  52 100 NE12      29.97R
CAMERON PHI      N/A     54  54 100 NE15G21   29.93S
DEQUINCY       CLOUDY    50  49  98 E6        29.94F
JENNINGS       LGT RAIN  52  52 100 N9        29.98R
LAFAYETTE      RAIN      55  54  96 NE3       29.93R
NEW IBERIA     RAIN      56  53  90 E7        29.95R
ABBEVILLE      DRIZZLE   54  54 100 E8        29.94R
PATTERSON      LGT RAIN N/A N/A N/A N7        29.98R
SALT POINT     NOT AVBL
$$

SELECTED SITES ACROSS THE REGION

CITY           SKY/WX    TMP DP  RH WIND       PRES   REMARKS
HOUSTON BUSH   LGT RAIN  52  50  93 N13       29.95R
HOUSTON HOBBY  CLOUDY    54  51  90 N13       29.93R
GALVESTON      CLOUDY    56  54  93 N13       29.93R
COLLEGE STAT   CLOUDY    52  49  89 N7        29.99R
CONROE         CLOUDY    51  49  92 N3        29.97R
HUNTSVILLE     CLOUDY    51  48  89 CALM      29.98R
LUFKIN         CLOUDY    50  47  89 N10       29.97S
SHREVEPORT     CLOUDY    50  46  86 NE5       30.00S
MONROE         CLOUDY    49  46  90 N5        30.04S
NATCHEZ MS     CLOUDY    48  46  93 N9        30.00R
BATON ROUGE    LGT RAIN  56  55  97 NE8G18    29.93F
N.O. INTL ARPT RAIN      61  61 100 NW6       29.96R FOG
SLIDELL        HVY RAIN  61  61 100 N9        29.95R FOG
$$

MARINE REPORTS

STATION/POSITION TIME  SKY/WX   TEMP    WIND        PRES    VSBY
                                AIR SEA DIR/SP/G
                 (UTC)          (F)     (DEG/KT/KT) (MB)    (MI)
BUOY 30 S HIGH I 2350            58 68   30/ 17/ 21 1012.3R
WVE H/P(F/S)=  3/ 4

SEA RIM ST PARK  0000            54      40/ 16/ 20 1013.6F
PORT ARTHUR      2348               61   50/  4/ 12 1013.4F
SABINE PASS N    2342            54 62   30/ 15/ 19 1014.0F
TEXAS POINT      NOT AVBL
CALCASIEU PASS   2342            54 59   40/ 11/ 15   N/A
LK CHARLES BEACH 2342            52 62              1015.2R
MARSH ISLAND     2300            59                   N/A
FRESH WATER LOCK 2342            56 61   60/  7/ 10 1014.1R
AMERADA PASS     2342            61 62  320/  3/  6 1014.4R
$$



USA.gov is the U.S. government's official web portal to all federal, state and local government web resources and services.